Home   Weather   Manama   Past weeks
Flag for Bahrain

Past Weather in Manama, Bahrain — Yesterday and Last 2 Weeks

Now
93 °F

Clear.


Feels Like: 126 °F
Forecast: 102 / 86 °F
Wind: 5 mph from Northeast

Location: Bahrain International Airport

Current Time: Jul 23, 2019 at 8:49:54 pm

Latest Report: Jul 23, 2019 at 8:00 pm


Visibility: 2 mi

Pressure: 29.42 "Hg

Humidity: 80%

Dew Point: 86 °F

Location of ManamaLocation

Past Weather in Manama — Graph

°F

Manama Temperature Yesterday

Maximum temperature yesterday: 104 °F (at 11:30 am)
Minimum temperature yesterday: 90 °F (at 12:00 am)
Average temperature yesterday: 95 °F

High & Low Weather Summary for the Past Weeks

 TemperatureHumidityPressure
High109 °F (Jul 10, 1:00 pm)84% (Jul 21, 1:30 am)29.53 "Hg (Jul 21, 1:30 am)
Low88 °F (Jul 21, 12:00 am)10% (Jul 10, 1:00 pm)28.53 "Hg (Jul 13, 2:30 am)
Average96 °F45%29.44 "Hg
* Reported Jul 8 7:00 pm — Jul 23 7:30 pm, Manama. Weather by CustomWeather, © 2019

Note: Actual official high and low records may vary slightly from our data, if they occured in-between our weather recording intervals... More about our weather records

Advertising

Manama Weather History for the Previous 24 Hours

Scroll right to see more
 ConditionsComfort  
Time TempWeatherWind HumidityBarometerVisibility
7:30 pm
Tue, Jul 23
93 °FClear.5 mph80%29.42 "Hg2 mi
7:00 pm93 °FClear.6 mph75%29.39 "Hg3 mi
6:30 pm93 °FClear.6 mph80%29.39 "Hg4 mi
6:00 pm93 °FSunny.7 mph80%29.39 "Hg4 mi
5:30 pm95 °FSunny.7 mph71%29.39 "Hg4 mi
5:00 pm97 °FSunny.7 mph63%29.39 "Hg4 mi
4:30 pm97 °FSunny.8 mph60%29.39 "Hg4 mi
4:00 pm97 °FSunny.8 mph63%29.39 "Hg4 mi
3:30 pm99 °FSunny.9 mph57%29.39 "Hg5 mi
3:00 pm97 °FSunny.10 mph60%29.42 "Hg10 mi
2:30 pm97 °FSunny.12 mph60%29.42 "Hg10 mi
2:00 pm97 °FSunny.12 mph63%29.42 "Hg10 mi
1:30 pm97 °FSunny.12 mph60%29.42 "Hg10 mi
1:00 pm97 °FSunny.12 mph60%29.42 "Hg10 mi
12:30 pm95 °FSunny.10 mph71%29.42 "Hg5 mi
12:00 pm97 °FSunny.12 mph71%29.42 "Hg5 mi
11:30 am95 °FPassing clouds.12 mph75%29.42 "Hg5 mi
11:00 am95 °FPassing clouds.10 mph71%29.42 "HgN/A
10:30 am97 °FPassing clouds.8 mph60%29.42 "HgN/A
10:00 am97 °FPassing clouds.8 mph63%29.42 "HgN/A
9:30 am95 °FPassing clouds.7 mph67%29.42 "HgN/A
9:00 am95 °FPassing clouds.8 mph63%29.45 "HgN/A
8:30 am95 °FSunny.9 mph60%29.42 "Hg10 mi
8:00 am95 °FSunny.7 mph63%29.42 "Hg10 mi
7:30 am93 °FSunny.7 mph67%29.42 "Hg10 mi
7:00 am93 °FSunny.7 mph67%29.42 "Hg10 mi
6:30 am93 °FSunny.8 mph67%29.42 "Hg10 mi
6:00 am91 °FSunny.5 mph67%29.42 "Hg10 mi
5:30 am91 °FSunny.5 mph63%29.42 "Hg10 mi
5:00 am91 °FPassing clouds.3 mph67%29.39 "HgN/A
4:30 am91 °FClear.2 mph71%29.39 "Hg5 mi
4:00 am91 °FClear.2 mph71%29.39 "Hg5 mi
3:30 am91 °FClear.5 mph71%29.39 "Hg4 mi
3:00 am91 °FClear.7 mph75%29.39 "Hg4 mi
2:30 am91 °FClear.8 mph71%29.36 "Hg4 mi
2:00 am91 °FClear.7 mph71%29.36 "Hg5 mi
1:30 am91 °FClear.7 mph71%29.36 "Hg5 mi
1:00 am93 °FClear.8 mph67%29.36 "Hg5 mi
12:30 am93 °FClear.7 mph71%29.36 "Hg5 mi
12:00 am91 °FClear.5 mph80%29.39 "Hg5 mi
11:30 pm
Mon, Jul 22
91 °FClear.6 mph80%29.39 "Hg5 mi
11:00 pm91 °FClear.5 mph80%29.39 "Hg5 mi
10:30 pm91 °FClear.9 mph80%29.42 "Hg5 mi
10:00 pm91 °FClear.12 mph80%29.42 "Hg6 mi
9:30 pm93 °FClear.14 mph71%29.42 "Hg6 mi
9:00 pm91 °FPassing clouds.14 mph84%29.42 "Hg6 mi
8:30 pm91 °FClear.12 mph80%29.42 "Hg10 mi
8:00 pm91 °FPassing clouds.7 mph75%29.42 "HgN/A
Weather by CustomWeather, © 2019

See weather overview